Regional Weather Roundup
Issued by NWS

Home | Current Version | Previous Version | Text Only | Print | Product List | Glossary On
Versions: 1 2 3 4 5 6 7 8 9 10 11 12 13 14 15 16 17 18 19 20 21 22 23 24 25 26 27 28 29 30 31 32 33 34 35 36 37 38 39 40 41 42 43 44 45 46 47 48 49 50
000
ASUS42 KTBW 200810
RWRFL
FLORIDA REGIONAL WEATHER ROUNDUP
NATIONAL WEATHER SERVICE TAMPA BAY RUSKIN FL
400 AM EDT MON OCT 20 2014

NOTE: "FAIR" INDICATES FEW OR NO CLOUDS BELOW 12,000 FEET WITH NO
SIGNIFICANT WEATHER AND/OR OBSTRUCTIONS TO VISIBILITY.


FLZ001>010-012>015-112-114-115-200900-
PANHANDLE FLORIDA

CITY           SKY/WX    TMP DP  RH WIND       PRES   REMARKS
PENSACOLA      CLEAR     53  51  93 NE5       30.05S
PENSACOLA NAS  CLEAR     50  50 100 NW3       30.04F
MILTON NAS     CLEAR     48  45  89 CALM      30.06S
CRESTVIEW      CLEAR     45  44  97 CALM      30.07F
DUKE FIELD     FAIR      47  45  93 CALM      30.06S
VALPARAISO     CLEAR     53  47  79 NW2       30.06S
MARY ESTHER    CLEAR     53  46  77 N7        30.05R
PANAMA CITY    FAIR      53  49  86 CALM      30.04F
TYNDALL AFB    CLEAR     59  53  81 NE3       30.05F
APALACHICOLA   PTCLDY    61  56  83 NE7       30.03F

STATION/POSITION SKY/WX   TEMP    WIND        PRES    WAVE   SWELL
                          AIR SEA DIR/SP/G            HT/PER HT/PER
                          (F)     (DEG/KT/KT) (MB)    (FT/S) (FT/S)
30.1N   87.6W              72 78   70/  6/  6 1017.0F   1/ 5   2/ 5
29.2N   88.2W              73 79   80/  8/ 12 1017.4F   2/ 5   2/ 5
28.8N   86.0W              75 81  100/  8/ 10 1016.8F   2/ 5   2/ 5
PANAMA CITY BEAC           61 77   60/  6/  7 1017.3S
CAPE SAN BLAS    NOT AVBL
TOWER C                    74     110/ 14/ 16 1016.6F
28.5N   84.5W              77 82   80/  4/  6 1016.4F   1/ 4

$$
FLZ011-016>038-118-127-128-134-139-239-200900-
NORTH FLORIDA

CITY           SKY/WX    TMP DP  RH WIND       PRES   REMARKS
MARIANNA       LGT RAIN  52  51  97 CALM      30.06F
TALLAHASSEE    CLEAR     54  49  83 MISG      30.05F
PERRY          PTCLDY    59  55  88 CALM      30.06S
CROSS CITY       N/A     58  55  90 NE3       30.04F
LAKE CITY      MOCLDY    57  55  94 NE5       30.05F
GAINESVILLE    CLEAR     56  55  97 CALM      30.05F
MAYPORT NAS    PTCLDY    71  61  70 NE9       30.05F
JACKSONVILLE   PTCLDY    56  55  97 N3        30.06F
JAX NAS        PTCLDY    71  62  73 N8        30.06F
JAX CRAIG      CLEAR     62  59  90 CALM      30.05F
JAX CECIL      PTCLDY    55  55 100 CALM      30.06F
FERNANDINA BEA FAIR      64  61  88 CALM      30.05F
ST AUGUSTINE   PTCLDY    73  63  70 E9        30.05F

STATION/POSITION SKY/WX   TEMP    WIND        PRES    WAVE   SWELL
                          AIR SEA DIR/SP/G            HT/PER HT/PER
                          (F)     (DEG/KT/KT) (MB)    (FT/S) (FT/S)
SHELL POINT                68      90/  8/ 14   N/A
KEATON BEACH               60      60/  7/ 10 1017.4F
CEDAR KEY                  65      50/ 10/ 12 1017.3F
FERNANDINA                 69 75   50/  3/  4 1017.4F
30.7N   81.3W                 77                N/A     3/13   2/13
MAYPORT                    73 76   60/ 10/ 12   N/A
31.4N   80.9W              71 76  100/  8/ 10 1018.7F   3/ 6   2/ 6
ST AUGUSTINE               75      90/  8/  9 1017.9F

$$
FLZ040-043>046-052-053-057-058-063-144-200900-
INTERIOR CENTRAL FLORIDA

CITY           SKY/WX    TMP DP  RH WIND       PRES   REMARKS
OCALA          PTCLDY    63  57  82 NE3       30.04S
THE VILLAGES     N/A     66  63  88 N8        29.93F
LEESBURG       CLEAR     66  63  90 NE3       30.04F
ORLANDO EXEC   PTCLDY    70  65  84 N3        30.02F
ORLANDO INTL   PTCLDY    66  65  96 N6        30.02F
WINTER HAVEN   CLEAR     66  63  90 CALM      30.03F
LAKELAND       CLEAR     64  63  94 CALM      30.02S
BARTOW         FAIR      61  61 100 CALM      30.03F
OKEECHOBEE       N/A     63  63 100 MISG        N/A

$$
FLZ041-047-054-059-064-141-147-200900-
EAST CENTRAL FLORIDA

CITY           SKY/WX    TMP DP  RH WIND       PRES   REMARKS
DAYTONA BEACH  CLOUDY    71  66  84 CALM      30.03F
DELAND         MOSUNNY   66  64  94 CALM      30.04F
JFK SPACE CTR  PTCLDY    72  68  88 W2        30.01S
CAPE CANAVERAL CLEAR     68  68 100 NW3       30.00F FOG
PATRICK AFB    CLEAR     72  70  92 NW6       30.01S
MELBOURNE      CLEAR     67  65  93 NW5       30.01F
VERO BEACH     CLEAR     63  62  97 CALM      30.01S
FT PIERCE      CLEAR     63  61  93 W3        30.01R FOG
STUART         CLEAR     63  61  94 CALM      30.01S

STATION/POSITION SKY/WX   TEMP    WIND        PRES    WAVE   SWELL
                          AIR SEA DIR/SP/G            HT/PER HT/PER
                          (F)     (DEG/KT/KT) (MB)    (FT/S) (FT/S)
28.5N   80.2W              77 83   80/ 10/ 14 1016.4F
28.9N   78.5W              76 81   40/ 12/ 16 1016.8F   5/ 7   3/ 7
TRIDENT PIER               71 80   20/  2/  3 1015.8F
28.4N   80.5W                 80                N/A     2/11   2/11
27.6N   80.2W                 81                N/A     2/11   2/11

$$
FLZ050-056-061-142-242-148-248-149-249-151-251-155-255-
160-260-200900-
WEST CENTRAL FLORIDA

CITY           SKY/WX    TMP DP  RH WIND       PRES   REMARKS
CRYSTAL RIVER  FAIR      61  59  94 CALM      30.03F
INVERNESS      FAIR      61  59  94 CALM      30.03F
BROOKSVILLE    CLEAR     63  61  93 NE3       30.03F
ZEPHYRHILLS      N/A     59  59 100 CALM      30.03F
CLEARWATER     CLEAR     71  65  81 E5        30.01F
TAMPA INTL     CLEAR     68  63  84 E5        30.01F
TAMPA EXEC     CLEAR     63  61  94 CALM      30.02S FOG
PLANT CITY     CLEAR     66 N/A N/A NE5       30.04S
MACDILL AFB    CLEAR     67  67  99 E8        30.01F
ST PETERSBURG  CLEAR     72  66  81 E6        30.00F
SARASOTA       CLEAR     66  63  90 E6        29.99F
VENICE           N/A     66  63  88 MISG      30.01S

STATION/POSITION SKY/WX   TEMP    WIND        PRES    WAVE   SWELL
                          AIR SEA DIR/SP/G            HT/PER HT/PER
                          (F)     (DEG/KT/KT) (MB)    (FT/S) (FT/S)
CEDAR KEY                  65      50/ 10/ 12 1017.3F
28.5N   84.5W              77 82   80/  4/  6 1016.4F   1/ 4
27.3N   84.3W                 81                N/A     2/ 5
CLEARWATER BEACH NOT AVBL
MIDDLE TAMPA BAY           70     120/ 11/ 12 1016.3F
VENICE                     68 79   60/  6/  8 1015.6F

$$
FLZ066-069-070-075>078-162-262-165-265-200900-
SOUTHWEST FLORIDA AND KEYS

CITY           SKY/WX    TMP DP  RH WIND       PRES   REMARKS
PUNTA GORDA    CLEAR     66  62  87 E7        30.01F
FT MYERS       CLEAR     68  65  90 E5        29.99S
SOUTHWEST INTL CLEAR     66  64  93 NE6       29.99F
NAPLES         CLEAR     69  66  90 E5        29.98F
MARATHON       PTCLDY    80  70  71 E7        29.96F
KEY WEST NAS   PTCLDY    79  70  74 E10       29.96S
KEY WEST INTL  CLEAR     81  72  74 E12       29.96S

STATION/POSITION SKY/WX   TEMP    WIND        PRES    WAVE   SWELL
                          AIR SEA DIR/SP/G            HT/PER HT/PER
                          (F)     (DEG/KT/KT) (MB)    (FT/S) (FT/S)
VENICE                     68 79   60/  6/  8 1015.6F
NAPLES                     70 84   70/  4/  5 1015.8S
26.0N   85.6W              79 83   80/ 10/ 12 1015.5F   2/ 5   2/ 5
DRY TORTUGAS               80     170/  5/  8 1014.7F
NW FL BAY                  81     120/  9/ 10 1015.4F
SAND KEY                   81     110/ 12/ 14 1014.4F
SOMBRERO KEY               81     100/ 14/ 15 1015.2F
LONG KEY                   81 82  110/ 10/ 11 1015.5F
MOLASSES REEF              81 84  140/  9/ 11 1014.9S

$$
FLZ067-068-071>074-168-172>174-200900-
SOUTHEAST FLORIDA

CITY           SKY/WX    TMP DP  RH WIND       PRES   REMARKS
W PALM BEACH   PTCLDY    70  65  84 CALM      29.98F
FT LAUDER-EXEC PTCLDY    72  63  73 CALM      29.98S
FT LAUDERDALE  PTCLDY    78  63  59 SE6       29.98S
POMPANO BEACH  PTCLDY    79  64  60 SE7       29.99S
PEMBROKE PINES CLEAR     71  65  81 CALM      29.99F
OPA LOCKA      PTCLDY    74  66  76 CALM      29.99S
MIAMI          PTCLDY    74  64  71 CALM      29.99S
WEST KENDALL   CLEAR     71  65  81 CALM      29.99S
HOMESTEAD      PTCLDY    73  65  77 CALM      29.98F

STATION/POSITION SKY/WX   TEMP    WIND        PRES    WAVE   SWELL
                          AIR SEA DIR/SP/G            HT/PER HT/PER
                          (F)     (DEG/KT/KT) (MB)    (FT/S) (FT/S)
PORT EVERGLADES            80     130/  7/  9 1015.2
VIRGINIA KEY               80 81  120/  6/  8 1015.7S
LAKE WORTH                 80 82  100/  9/ 11 1015.1S
FOWEY ROCKS                81 82  110/ 12/ 13 1015.5F
SETTLEMENT POINT           78     130/  4/  5 1016.3S

$$




USA.gov is the U.S. government's official web portal to all federal, state and local government web resources and services.